Year,Month,Day,Hour,Minute,Value (Times are PST for temperature in C)
2020,08,06,00,00,17.20
2020,08,06,00,01,17.20
2020,08,06,00,02,17.20
2020,08,06,00,03,17.20
2020,08,06,00,04,17.10
2020,08,06,00,05,17.10
2020,08,06,00,06,17.20
2020,08,06,00,07,17.30
2020,08,06,00,08,17.30
2020,08,06,00,09,17.40
2020,08,06,00,10,17.60
2020,08,06,00,11,17.70
2020,08,06,00,12,17.70
2020,08,06,00,13,17.70
2020,08,06,00,14,17.80
2020,08,06,00,15,17.80
2020,08,06,00,16,17.80
2020,08,06,00,17,17.80
2020,08,06,00,18,17.80
2020,08,06,00,19,17.80
2020,08,06,00,20,17.80
2020,08,06,00,21,17.80
2020,08,06,00,22,17.70
2020,08,06,00,23,17.70
2020,08,06,00,24,17.70
2020,08,06,00,25,17.80
2020,08,06,00,26,17.80
2020,08,06,00,27,17.80
2020,08,06,00,28,17.80
2020,08,06,00,29,17.80
2020,08,06,00,30,17.80
2020,08,06,00,31,17.80
2020,08,06,00,32,17.80
2020,08,06,00,33,17.80
2020,08,06,00,34,17.80
2020,08,06,00,35,17.70
2020,08,06,00,36,17.80
2020,08,06,00,37,17.80
2020,08,06,00,38,17.90
2020,08,06,00,39,17.90
2020,08,06,00,40,17.90
2020,08,06,00,41,17.90
2020,08,06,00,42,17.80
2020,08,06,00,43,17.80
2020,08,06,00,44,17.90
2020,08,06,00,45,17.90
2020,08,06,00,46,17.90
2020,08,06,00,47,17.10
2020,08,06,00,48,16.00
2020,08,06,00,49,15.50
2020,08,06,00,50,15.40
2020,08,06,00,51,15.40
2020,08,06,00,52,15.20
2020,08,06,00,53,14.90
2020,08,06,00,54,14.70
2020,08,06,00,55,14.70
2020,08,06,00,56,14.70
2020,08,06,00,57,14.70
2020,08,06,00,58,14.80
2020,08,06,00,59,14.90
2020,08,06,01,00,15.00
2020,08,06,01,01,14.90
2020,08,06,01,02,15.00
2020,08,06,01,03,15.10
2020,08,06,01,04,15.10
2020,08,06,01,05,15.10
2020,08,06,01,06,15.10
2020,08,06,01,07,15.00
2020,08,06,01,08,15.10
2020,08,06,01,09,15.10
2020,08,06,01,10,15.00
2020,08,06,01,11,15.00
2020,08,06,01,12,15.10
2020,08,06,01,13,15.00
2020,08,06,01,14,14.90
2020,08,06,01,15,14.90
2020,08,06,01,16,14.70
2020,08,06,01,17,14.50
2020,08,06,01,18,14.40
2020,08,06,01,19,14.30
2020,08,06,01,20,14.20
2020,08,06,01,21,14.10
2020,08,06,01,22,14.10
2020,08,06,01,23,14.10
2020,08,06,01,24,14.20
2020,08,06,01,25,14.30
2020,08,06,01,26,14.40
2020,08,06,01,27,14.40
2020,08,06,01,28,14.30
2020,08,06,01,29,14.20
2020,08,06,01,30,14.10
2020,08,06,01,31,14.20
2020,08,06,01,32,14.20
2020,08,06,01,33,14.10
2020,08,06,01,34,14.10
2020,08,06,01,35,14.20
2020,08,06,01,36,14.20
2020,08,06,01,37,14.30
2020,08,06,01,38,14.30
2020,08,06,01,39,14.30
2020,08,06,01,40,14.50
2020,08,06,01,41,14.50
2020,08,06,01,42,14.50
2020,08,06,01,43,14.50
2020,08,06,01,44,14.50
2020,08,06,01,45,14.70
2020,08,06,01,46,15.00
2020,08,06,01,47,14.90
2020,08,06,01,48,14.90
2020,08,06,01,49,15.10
2020,08,06,01,50,15.30
2020,08,06,01,51,15.30
2020,08,06,01,52,15.40
2020,08,06,01,53,15.40
2020,08,06,01,54,15.50
2020,08,06,01,55,15.50
2020,08,06,01,56,15.50
2020,08,06,01,57,15.50
2020,08,06,01,58,15.60
2020,08,06,01,59,15.60
2020,08,06,02,00,15.70
2020,08,06,02,01,15.70
2020,08,06,02,02,15.70
2020,08,06,02,03,15.80
2020,08,06,02,04,15.80
2020,08,06,02,05,15.80
2020,08,06,02,06,15.80
2020,08,06,02,07,15.80
2020,08,06,02,08,15.80
2020,08,06,02,09,15.90
2020,08,06,02,10,15.90
2020,08,06,02,11,15.90
2020,08,06,02,12,16.00
2020,08,06,02,13,16.00
2020,08,06,02,14,16.10
2020,08,06,02,15,16.10
2020,08,06,02,16,16.10
2020,08,06,02,17,16.20
2020,08,06,02,18,16.20
2020,08,06,02,19,16.20
2020,08,06,02,20,16.30
2020,08,06,02,21,16.10
2020,08,06,02,22,15.60
2020,08,06,02,23,15.50
2020,08,06,02,24,15.70
2020,08,06,02,25,15.40
2020,08,06,02,26,15.20
2020,08,06,02,27,15.30
2020,08,06,02,28,15.30
2020,08,06,02,29,15.20
2020,08,06,02,30,15.10
2020,08,06,02,31,15.10
2020,08,06,02,32,15.10
2020,08,06,02,33,14.80
2020,08,06,02,34,14.80
2020,08,06,02,35,14.80
2020,08,06,02,36,14.90
2020,08,06,02,37,15.00
2020,08,06,02,38,15.10
2020,08,06,02,39,15.10
2020,08,06,02,40,15.20
2020,08,06,02,41,15.30
2020,08,06,02,42,15.30
2020,08,06,02,43,15.30
2020,08,06,02,44,15.30
2020,08,06,02,45,15.30
2020,08,06,02,46,15.30
2020,08,06,02,47,15.30
2020,08,06,02,48,15.40
2020,08,06,02,49,15.40
2020,08,06,02,50,15.40
2020,08,06,02,51,15.50
2020,08,06,02,52,15.50
2020,08,06,02,53,15.60
2020,08,06,02,54,15.60
2020,08,06,02,55,15.60
2020,08,06,02,56,15.70
2020,08,06,02,57,15.70
2020,08,06,02,58,15.70
2020,08,06,02,59,15.70
2020,08,06,03,00,15.80
2020,08,06,03,01,15.80
2020,08,06,03,02,15.80
2020,08,06,03,03,15.80
2020,08,06,03,04,15.90
2020,08,06,03,05,15.90
2020,08,06,03,06,15.90
2020,08,06,03,07,15.90
2020,08,06,03,08,15.90
2020,08,06,03,09,15.90
2020,08,06,03,10,15.90
2020,08,06,03,11,16.00
2020,08,06,03,12,15.90
2020,08,06,03,13,16.00
2020,08,06,03,14,16.00
2020,08,06,03,15,16.00
2020,08,06,03,16,16.00
2020,08,06,03,17,16.10
2020,08,06,03,18,16.10
2020,08,06,03,19,16.10
2020,08,06,03,20,16.20
2020,08,06,03,21,16.20
2020,08,06,03,22,16.20
2020,08,06,03,23,16.30
2020,08,06,03,24,16.30
2020,08,06,03,25,16.30
2020,08,06,03,26,16.30
2020,08,06,03,27,16.30
2020,08,06,03,28,16.30
2020,08,06,03,29,16.30
2020,08,06,03,30,16.30
2020,08,06,03,31,16.30
2020,08,06,03,32,16.30
2020,08,06,03,33,16.20
2020,08,06,03,34,16.20
2020,08,06,03,35,16.20
2020,08,06,03,36,16.20
2020,08,06,03,37,16.20
2020,08,06,03,38,16.20
2020,08,06,03,39,16.20
2020,08,06,03,40,16.20
2020,08,06,03,41,16.20
2020,08,06,03,42,16.20
2020,08,06,03,43,16.20
2020,08,06,03,44,16.20
2020,08,06,03,45,16.20
2020,08,06,03,46,16.20
2020,08,06,03,47,16.10
2020,08,06,03,48,16.10
2020,08,06,03,49,16.10
2020,08,06,03,50,16.10
2020,08,06,03,51,16.00
2020,08,06,03,52,16.00
2020,08,06,03,53,15.90
2020,08,06,03,54,15.90
2020,08,06,03,55,15.90
2020,08,06,03,56,15.80
2020,08,06,03,57,15.80
2020,08,06,03,58,15.70
2020,08,06,03,59,15.70
2020,08,06,04,00,15.50
2020,08,06,04,01,15.40
2020,08,06,04,02,15.40
2020,08,06,04,03,15.30
2020,08,06,04,04,15.10
2020,08,06,04,05,15.00
2020,08,06,04,06,14.90
2020,08,06,04,07,14.70
2020,08,06,04,08,14.60
2020,08,06,04,09,14.40
2020,08,06,04,10,14.30
2020,08,06,04,11,14.10
2020,08,06,04,12,13.90
2020,08,06,04,13,13.80
2020,08,06,04,14,13.60
2020,08,06,04,15,13.50
2020,08,06,04,16,13.20
2020,08,06,04,17,13.00
2020,08,06,04,18,12.80
2020,08,06,04,19,12.60
2020,08,06,04,20,12.40
2020,08,06,04,21,12.20
2020,08,06,04,22,12.20
2020,08,06,04,23,12.30
2020,08,06,04,24,12.40
2020,08,06,04,25,12.40
2020,08,06,04,26,12.50
2020,08,06,04,27,12.70
2020,08,06,04,28,12.80
2020,08,06,04,29,12.80
2020,08,06,04,30,12.70
2020,08,06,04,31,12.70
2020,08,06,04,32,13.00
2020,08,06,04,33,13.20
2020,08,06,04,34,13.00
2020,08,06,04,35,12.80
2020,08,06,04,36,12.70
2020,08,06,04,37,12.60
2020,08,06,04,38,12.60
2020,08,06,04,39,12.50
2020,08,06,04,40,12.40
2020,08,06,04,41,12.50
2020,08,06,04,42,12.60
2020,08,06,04,43,12.60
2020,08,06,04,44,12.60
2020,08,06,04,45,12.60
2020,08,06,04,46,12.50
2020,08,06,04,47,12.60
2020,08,06,04,48,12.70
2020,08,06,04,49,12.80
2020,08,06,04,50,12.80
2020,08,06,04,51,12.70
2020,08,06,04,52,12.60
2020,08,06,04,53,12.60
2020,08,06,04,54,12.60
2020,08,06,04,55,12.70
2020,08,06,04,56,12.70
2020,08,06,04,57,12.80
2020,08,06,04,58,12.80
2020,08,06,04,59,12.80
2020,08,06,05,00,12.90
2020,08,06,05,01,12.90
2020,08,06,05,02,12.80
2020,08,06,05,03,12.80
2020,08,06,05,04,12.60
2020,08,06,05,05,12.50
2020,08,06,05,06,12.40
2020,08,06,05,07,12.30
2020,08,06,05,08,12.20
2020,08,06,05,09,12.00
2020,08,06,05,10,12.00
2020,08,06,05,11,12.10
2020,08,06,05,12,12.20
2020,08,06,05,13,12.10
2020,08,06,05,14,12.20
2020,08,06,05,15,12.20
2020,08,06,05,16,12.20
2020,08,06,05,17,12.10
2020,08,06,05,18,12.10
2020,08,06,05,19,12.20
2020,08,06,05,20,12.20
2020,08,06,05,21,12.20
2020,08,06,05,22,12.30
2020,08,06,05,23,12.30
2020,08,06,05,24,12.20
2020,08,06,05,25,12.20
2020,08,06,05,26,12.20
2020,08,06,05,27,12.20
2020,08,06,05,28,12.10
2020,08,06,05,29,12.00
2020,08,06,05,30,12.00
2020,08,06,05,31,12.00
2020,08,06,05,32,12.00
2020,08,06,05,33,12.10
2020,08,06,05,34,12.00
2020,08,06,05,35,12.00
2020,08,06,05,36,11.90
2020,08,06,05,37,11.90
2020,08,06,05,38,11.90
2020,08,06,05,39,11.80
2020,08,06,05,40,11.80
2020,08,06,05,41,11.70
2020,08,06,05,42,11.70
2020,08,06,05,43,11.80
2020,08,06,05,44,11.80
2020,08,06,05,45,11.80
2020,08,06,05,46,11.80
2020,08,06,05,47,11.80
2020,08,06,05,48,11.80
2020,08,06,05,49,11.80
2020,08,06,05,50,11.80
2020,08,06,05,51,11.80
2020,08,06,05,52,11.70
2020,08,06,05,53,11.70
2020,08,06,05,54,11.70
2020,08,06,05,55,11.70
2020,08,06,05,56,11.70
2020,08,06,05,57,11.60
2020,08,06,05,58,11.70
2020,08,06,05,59,11.70
2020,08,06,06,00,11.70
2020,08,06,06,01,11.70
2020,08,06,06,02,11.70
2020,08,06,06,03,11.70
2020,08,06,06,04,11.70
2020,08,06,06,05,11.80
2020,08,06,06,06,11.80
2020,08,06,06,07,11.70
2020,08,06,06,08,11.70
2020,08,06,06,09,11.70
2020,08,06,06,10,11.70
2020,08,06,06,11,11.60
2020,08,06,06,12,11.70
2020,08,06,06,13,11.70
2020,08,06,06,14,11.70
2020,08,06,06,15,11.70
2020,08,06,06,16,11.70
2020,08,06,06,17,11.70
2020,08,06,06,18,11.70
2020,08,06,06,19,11.70
2020,08,06,06,20,11.70
2020,08,06,06,21,11.70
2020,08,06,06,22,11.70
2020,08,06,06,23,11.70
2020,08,06,06,24,11.70
2020,08,06,06,25,11.70
2020,08,06,06,26,11.70
2020,08,06,06,27,11.70
2020,08,06,06,28,11.80
2020,08,06,06,29,11.80
2020,08,06,06,30,11.80
2020,08,06,06,31,11.80
2020,08,06,06,32,11.90
2020,08,06,06,33,11.90
2020,08,06,06,34,11.80
2020,08,06,06,35,11.90
2020,08,06,06,36,11.80
2020,08,06,06,37,11.80
2020,08,06,06,38,11.80
2020,08,06,06,39,11.80
2020,08,06,06,40,11.80
2020,08,06,06,41,11.80
2020,08,06,06,42,11.80
2020,08,06,06,43,11.80
2020,08,06,06,44,11.80
2020,08,06,06,45,11.80
2020,08,06,06,46,11.80
2020,08,06,06,47,11.80
2020,08,06,06,48,11.80
2020,08,06,06,49,11.90
2020,08,06,06,50,11.90
2020,08,06,06,51,11.90
2020,08,06,06,52,11.90
2020,08,06,06,53,11.90
2020,08,06,06,54,11.90
2020,08,06,06,55,11.90
2020,08,06,06,56,11.90
2020,08,06,06,57,12.00
2020,08,06,06,58,12.00
2020,08,06,06,59,12.00
2020,08,06,07,00,12.00
2020,08,06,07,01,12.10
2020,08,06,07,02,12.10
2020,08,06,07,03,12.10
2020,08,06,07,04,12.10
2020,08,06,07,05,12.10
2020,08,06,07,06,12.10
2020,08,06,07,07,12.10
2020,08,06,07,08,12.10
2020,08,06,07,09,12.10
2020,08,06,07,10,12.20
2020,08,06,07,11,12.30
2020,08,06,07,12,12.30
2020,08,06,07,13,12.30
2020,08,06,07,14,12.30
2020,08,06,07,15,12.30
2020,08,06,07,16,12.30
2020,08,06,07,17,12.30
2020,08,06,07,18,12.30
2020,08,06,07,19,12.30
2020,08,06,07,20,12.40
2020,08,06,07,21,12.40
2020,08,06,07,22,12.40
2020,08,06,07,23,12.30
2020,08,06,07,24,12.30
2020,08,06,07,25,12.30
2020,08,06,07,26,12.30
2020,08,06,07,27,12.30
2020,08,06,07,28,12.30
2020,08,06,07,29,12.30
2020,08,06,07,30,12.30
2020,08,06,07,31,12.20
2020,08,06,07,32,12.20
2020,08,06,07,33,12.20
2020,08,06,07,34,12.20
2020,08,06,07,35,12.30
2020,08,06,07,36,12.30
2020,08,06,07,37,12.30
2020,08,06,07,38,12.30
2020,08,06,07,39,12.30
2020,08,06,07,40,12.30
2020,08,06,07,41,12.30
2020,08,06,07,42,12.30
2020,08,06,07,43,12.40
2020,08,06,07,44,12.40
2020,08,06,07,45,12.40
2020,08,06,07,46,12.40
2020,08,06,07,47,12.40
2020,08,06,07,48,12.40
2020,08,06,07,49,12.40
2020,08,06,07,50,12.50
2020,08,06,07,51,12.50
2020,08,06,07,52,12.50
2020,08,06,07,53,12.60
2020,08,06,07,54,12.60
2020,08,06,07,55,12.60
2020,08,06,07,56,12.70
2020,08,06,07,57,12.70
2020,08,06,07,58,12.70
2020,08,06,07,59,12.70
2020,08,06,08,00,12.70
2020,08,06,08,01,12.80
2020,08,06,08,02,12.90
2020,08,06,08,03,12.90
2020,08,06,08,04,12.80
2020,08,06,08,05,12.80
2020,08,06,08,06,12.80
2020,08,06,08,07,12.80
2020,08,06,08,08,12.80
2020,08,06,08,09,12.90
2020,08,06,08,10,12.90
2020,08,06,08,11,12.90
2020,08,06,08,12,12.90
2020,08,06,08,13,12.90
2020,08,06,08,14,12.90
2020,08,06,08,15,12.90
2020,08,06,08,16,12.90
2020,08,06,08,17,13.00
2020,08,06,08,18,13.00
2020,08,06,08,19,13.00
2020,08,06,08,20,13.00
2020,08,06,08,21,12.90
2020,08,06,08,22,12.90
2020,08,06,08,23,12.90
2020,08,06,08,24,12.90
2020,08,06,08,25,12.90
2020,08,06,08,26,12.80
2020,08,06,08,27,12.80
2020,08,06,08,28,12.80
2020,08,06,08,29,12.80
2020,08,06,08,30,12.80
2020,08,06,08,31,12.80
2020,08,06,08,32,12.80
2020,08,06,08,33,12.80
2020,08,06,08,34,12.90
2020,08,06,08,35,12.80
2020,08,06,08,36,12.80
2020,08,06,08,37,12.80
2020,08,06,08,38,12.70
2020,08,06,08,39,12.70
2020,08,06,08,40,12.70
2020,08,06,08,41,12.70
2020,08,06,08,42,12.70
2020,08,06,08,43,12.70
2020,08,06,08,44,12.70
2020,08,06,08,45,12.70
2020,08,06,08,46,12.70
2020,08,06,08,47,12.70
2020,08,06,08,48,12.70
2020,08,06,08,49,12.70
2020,08,06,08,50,12.70
2020,08,06,08,51,12.70
2020,08,06,08,52,12.70
2020,08,06,08,53,12.70
2020,08,06,08,54,12.80
2020,08,06,08,55,12.80
2020,08,06,08,56,12.90
2020,08,06,08,57,12.90
2020,08,06,08,58,12.80
2020,08,06,08,59,12.90
2020,08,06,09,00,12.90
2020,08,06,09,01,12.90
2020,08,06,09,02,12.90
2020,08,06,09,03,12.90
2020,08,06,09,04,12.90
2020,08,06,09,05,12.90
2020,08,06,09,06,12.90
2020,08,06,09,07,13.10
2020,08,06,09,08,13.20
2020,08,06,09,09,13.10
2020,08,06,09,10,13.10
2020,08,06,09,11,13.10
2020,08,06,09,12,13.10
2020,08,06,09,13,13.10
2020,08,06,09,14,13.10
2020,08,06,09,15,13.10
2020,08,06,09,16,13.10
2020,08,06,09,17,13.10
2020,08,06,09,18,13.10
2020,08,06,09,19,13.20
2020,08,06,09,20,13.20
2020,08,06,09,21,13.20
2020,08,06,09,22,13.20
2020,08,06,09,23,13.10
2020,08,06,09,24,13.20
2020,08,06,09,25,13.30
2020,08,06,09,26,13.30
2020,08,06,09,27,13.30
2020,08,06,09,28,13.20
2020,08,06,09,29,13.20
2020,08,06,09,30,13.30
2020,08,06,09,31,13.30
2020,08,06,09,32,13.30
2020,08,06,09,33,13.30
2020,08,06,09,34,13.40
2020,08,06,09,35,13.40
2020,08,06,09,36,13.40
2020,08,06,09,37,13.50
2020,08,06,09,38,13.50
2020,08,06,09,39,13.40
2020,08,06,09,40,13.40
2020,08,06,09,41,13.30
2020,08,06,09,42,13.40
2020,08,06,09,43,13.40
2020,08,06,09,44,13.40
2020,08,06,09,45,13.40
2020,08,06,09,46,13.40
2020,08,06,09,47,13.30
2020,08,06,09,48,13.30
2020,08,06,09,49,13.40
2020,08,06,09,50,13.50
2020,08,06,09,51,13.50
2020,08,06,09,52,13.50
2020,08,06,09,53,13.50
2020,08,06,09,54,13.50
2020,08,06,09,55,13.50
2020,08,06,09,56,13.50
2020,08,06,09,57,13.50
2020,08,06,09,58,13.60
2020,08,06,09,59,13.60
2020,08,06,10,00,13.60
2020,08,06,10,01,13.60
2020,08,06,10,02,13.60
2020,08,06,10,03,13.60
2020,08,06,10,04,13.60
2020,08,06,10,05,13.70
2020,08,06,10,06,13.70
2020,08,06,10,07,13.70
2020,08,06,10,08,13.70
2020,08,06,10,09,13.70
2020,08,06,10,10,13.70
2020,08,06,10,11,13.70
2020,08,06,10,12,13.80
2020,08,06,10,13,13.70
2020,08,06,10,14,13.70
2020,08,06,10,15,13.70
2020,08,06,10,16,13.60
2020,08,06,10,17,13.70
2020,08,06,10,18,13.70
2020,08,06,10,19,13.80
2020,08,06,10,20,13.80
2020,08,06,10,21,13.80
2020,08,06,10,22,13.80
2020,08,06,10,23,13.80
2020,08,06,10,24,13.80
2020,08,06,10,25,13.90
2020,08,06,10,26,13.90
2020,08,06,10,27,13.80
2020,08,06,10,28,13.80
2020,08,06,10,29,13.80
2020,08,06,10,30,13.90
2020,08,06,10,31,14.00
2020,08,06,10,32,14.00
2020,08,06,10,33,13.90
2020,08,06,10,34,13.80
2020,08,06,10,35,13.90
2020,08,06,10,36,13.90
2020,08,06,10,37,14.00
2020,08,06,10,38,14.10
2020,08,06,10,39,14.20
2020,08,06,10,40,14.10
2020,08,06,10,41,14.20
2020,08,06,10,42,14.20
2020,08,06,10,43,14.20
2020,08,06,10,44,14.10
2020,08,06,10,45,14.20
2020,08,06,10,46,14.10
2020,08,06,10,47,14.10
2020,08,06,10,48,14.10
2020,08,06,10,49,14.10
2020,08,06,10,50,14.10
2020,08,06,10,51,14.20
2020,08,06,10,52,14.20
2020,08,06,10,53,14.10
2020,08,06,10,54,14.10
2020,08,06,10,55,14.10
2020,08,06,10,56,14.10
2020,08,06,10,57,14.00
2020,08,06,10,58,14.00
2020,08,06,10,59,14.00
2020,08,06,11,00,13.90
2020,08,06,11,01,13.90
2020,08,06,11,02,13.90
2020,08,06,11,03,14.00
2020,08,06,11,04,14.10
2020,08,06,11,05,14.20
2020,08,06,11,06,14.20
2020,08,06,11,07,14.40
2020,08,06,11,08,14.30
2020,08,06,11,09,14.20
2020,08,06,11,10,14.10
2020,08,06,11,11,14.00
2020,08,06,11,12,14.10
2020,08,06,11,13,14.30
2020,08,06,11,14,14.30
2020,08,06,11,15,14.20
2020,08,06,11,16,14.10
2020,08,06,11,17,14.00
2020,08,06,11,18,14.10
2020,08,06,11,19,14.00
2020,08,06,11,20,14.00
2020,08,06,11,21,14.10
2020,08,06,11,22,14.20
2020,08,06,11,23,14.20
2020,08,06,11,24,14.20
2020,08,06,11,25,14.20
2020,08,06,11,26,14.20
2020,08,06,11,27,14.20
2020,08,06,11,28,14.10
2020,08,06,11,29,14.10
2020,08,06,11,30,14.10
2020,08,06,11,31,14.10
2020,08,06,11,32,14.20
2020,08,06,11,33,14.10
2020,08,06,11,34,14.10
2020,08,06,11,35,14.00
2020,08,06,11,36,14.00
2020,08,06,11,37,14.10
2020,08,06,11,38,14.10
2020,08,06,11,39,14.10
2020,08,06,11,40,14.10
2020,08,06,11,41,14.10
2020,08,06,11,42,14.30
2020,08,06,11,43,14.30
2020,08,06,11,44,14.30
2020,08,06,11,45,14.50
2020,08,06,11,46,14.40
2020,08,06,11,47,14.40
2020,08,06,11,48,14.40
2020,08,06,11,49,14.20
2020,08,06,11,50,14.20
2020,08,06,11,51,14.20
2020,08,06,11,52,14.20
2020,08,06,11,53,14.20
2020,08,06,11,54,14.20
2020,08,06,11,55,14.10
2020,08,06,11,56,14.10
2020,08,06,11,57,14.30
2020,08,06,11,58,14.40
2020,08,06,11,59,14.40
2020,08,06,12,00,14.40
2020,08,06,12,01,14.20
2020,08,06,12,02,14.30
2020,08,06,12,03,14.40
2020,08,06,12,04,14.40
2020,08,06,12,05,14.50
2020,08,06,12,06,14.60
2020,08,06,12,07,14.60
2020,08,06,12,08,14.60
2020,08,06,12,09,14.60
2020,08,06,12,10,14.60
2020,08,06,12,11,14.50
2020,08,06,12,12,14.50
2020,08,06,12,13,14.50
2020,08,06,12,14,14.60
2020,08,06,12,15,14.60
2020,08,06,12,16,14.70
2020,08,06,12,17,14.70
2020,08,06,12,18,14.80
2020,08,06,12,19,14.80
2020,08,06,12,20,14.80
2020,08,06,12,21,14.80
2020,08,06,12,22,14.80
2020,08,06,12,23,15.00
2020,08,06,12,24,15.00
2020,08,06,12,25,14.90
2020,08,06,12,26,14.90
2020,08,06,12,27,15.00
2020,08,06,12,28,15.10
2020,08,06,12,29,15.20
2020,08,06,12,30,15.30
2020,08,06,12,31,15.20
2020,08,06,12,32,15.20
2020,08,06,12,33,15.20
2020,08,06,12,34,15.30
2020,08,06,12,35,15.20
2020,08,06,12,36,15.10
2020,08,06,12,37,15.10
2020,08,06,12,38,15.20
2020,08,06,12,39,15.20
2020,08,06,12,40,15.20
2020,08,06,12,41,15.20
2020,08,06,12,42,15.20
2020,08,06,12,43,15.30
2020,08,06,12,44,15.20
2020,08,06,12,45,15.10
2020,08,06,12,46,15.00
2020,08,06,12,47,15.20
2020,08,06,12,48,15.20
2020,08,06,12,49,15.20
2020,08,06,12,50,15.10
2020,08,06,12,51,15.10
2020,08,06,12,52,15.10
2020,08,06,12,53,15.10
2020,08,06,12,54,15.20
2020,08,06,12,55,15.20
2020,08,06,12,56,15.30
2020,08,06,12,57,15.30
2020,08,06,12,58,15.20
2020,08,06,12,59,15.30
2020,08,06,13,00,15.30
2020,08,06,13,01,15.40
2020,08,06,13,02,15.40
2020,08,06,13,03,15.20
2020,08,06,13,04,15.30
2020,08,06,13,05,15.40
2020,08,06,13,06,15.30
2020,08,06,13,07,15.10
2020,08,06,13,08,14.90
2020,08,06,13,09,14.90
2020,08,06,13,10,14.90
2020,08,06,13,11,14.90
2020,08,06,13,12,14.90
2020,08,06,13,13,15.00
2020,08,06,13,14,15.20
2020,08,06,13,15,15.20
2020,08,06,13,16,15.20
2020,08,06,13,17,15.30
2020,08,06,13,18,15.30
2020,08,06,13,19,15.10
2020,08,06,13,20,15.10
2020,08,06,13,21,15.10
2020,08,06,13,22,15.30
2020,08,06,13,23,15.20
2020,08,06,13,24,15.20
2020,08,06,13,25,15.20
2020,08,06,13,26,15.20
2020,08,06,13,27,15.20
2020,08,06,13,28,15.10
2020,08,06,13,29,15.20
2020,08,06,13,30,15.20
2020,08,06,13,31,15.20
2020,08,06,13,32,15.20
2020,08,06,13,33,15.20
2020,08,06,13,34,15.30
2020,08,06,13,35,15.40
2020,08,06,13,36,15.30
2020,08,06,13,37,15.30
2020,08,06,13,38,15.40
2020,08,06,13,39,15.50
2020,08,06,13,40,15.50
2020,08,06,13,41,15.50
2020,08,06,13,42,15.50
2020,08,06,13,43,15.50
2020,08,06,13,44,15.60
2020,08,06,13,45,15.60
2020,08,06,13,46,15.70
2020,08,06,13,47,15.60
2020,08,06,13,48,15.70
2020,08,06,13,49,15.80
2020,08,06,13,50,15.70
2020,08,06,13,51,15.60
2020,08,06,13,52,15.70
2020,08,06,13,53,15.60
2020,08,06,13,54,15.60
2020,08,06,13,55,15.60
2020,08,06,13,56,15.80
2020,08,06,13,57,15.70
2020,08,06,13,58,15.60
2020,08,06,13,59,15.60
2020,08,06,14,00,15.40
2020,08,06,14,01,15.40
2020,08,06,14,02,15.40
2020,08,06,14,03,15.50
2020,08,06,14,04,15.50
2020,08,06,14,05,15.50
2020,08,06,14,06,15.40
2020,08,06,14,07,15.30
2020,08,06,14,08,15.20
2020,08,06,14,09,15.20
2020,08,06,14,10,15.20
2020,08,06,14,11,15.50
2020,08,06,14,12,15.60
2020,08,06,14,13,15.60
2020,08,06,14,14,15.60
2020,08,06,14,15,15.50
2020,08,06,14,16,15.50
2020,08,06,14,17,15.40
2020,08,06,14,18,15.20
2020,08,06,14,19,15.30
2020,08,06,14,20,15.30
2020,08,06,14,21,15.40
2020,08,06,14,22,15.40
2020,08,06,14,23,15.40
2020,08,06,14,24,15.30
2020,08,06,14,25,15.20
2020,08,06,14,26,15.20
2020,08,06,14,27,15.20
2020,08,06,14,28,15.20
2020,08,06,14,29,15.40
2020,08,06,14,30,15.40
2020,08,06,14,31,15.40
2020,08,06,14,32,15.40
2020,08,06,14,33,15.30
2020,08,06,14,34,15.30
2020,08,06,14,35,15.30
2020,08,06,14,36,15.20
2020,08,06,14,37,15.10
2020,08,06,14,38,15.20
2020,08,06,14,39,15.30
2020,08,06,14,40,15.20
2020,08,06,14,41,15.30
2020,08,06,14,42,15.40
2020,08,06,14,43,15.40
2020,08,06,14,44,15.50
2020,08,06,14,45,15.50
2020,08,06,14,46,15.50
2020,08,06,14,47,15.60
2020,08,06,14,48,15.60
2020,08,06,14,49,15.60
2020,08,06,14,50,15.60
2020,08,06,14,51,15.50
2020,08,06,14,52,15.40
2020,08,06,14,53,15.40
2020,08,06,14,54,15.50
2020,08,06,14,55,15.60
2020,08,06,14,56,15.60
2020,08,06,14,57,15.60
2020,08,06,14,58,15.50
2020,08,06,14,59,15.50
2020,08,06,15,00,15.50
2020,08,06,15,01,15.60
2020,08,06,15,02,15.70
2020,08,06,15,03,15.80
2020,08,06,15,04,15.90
2020,08,06,15,05,15.90
2020,08,06,15,06,16.00
2020,08,06,15,07,15.90
2020,08,06,15,08,15.80
2020,08,06,15,09,15.80
2020,08,06,15,10,15.90
2020,08,06,15,11,15.70
2020,08,06,15,12,15.60
2020,08,06,15,13,15.50
2020,08,06,15,14,15.50
2020,08,06,15,15,15.60
2020,08,06,15,16,15.70
2020,08,06,15,17,15.70
2020,08,06,15,18,15.80
2020,08,06,15,19,15.90
2020,08,06,15,20,15.90
2020,08,06,15,21,15.90
2020,08,06,15,22,15.90
2020,08,06,15,23,15.90
2020,08,06,15,24,15.90
2020,08,06,15,25,15.90
2020,08,06,15,26,15.90
2020,08,06,15,27,15.80
2020,08,06,15,28,15.90
2020,08,06,15,29,15.90
2020,08,06,15,30,15.90
2020,08,06,15,31,15.90
2020,08,06,15,32,16.10
2020,08,06,15,33,16.30
2020,08,06,15,34,16.10
2020,08,06,15,35,15.90
2020,08,06,15,36,15.80
2020,08,06,15,37,15.90
2020,08,06,15,38,15.90
2020,08,06,15,39,16.00
2020,08,06,15,40,15.90
2020,08,06,15,41,15.90
2020,08,06,15,42,16.00
2020,08,06,15,43,16.00
2020,08,06,15,44,16.00
2020,08,06,15,45,16.00
2020,08,06,15,46,16.20
2020,08,06,15,47,16.20
2020,08,06,15,48,16.10
2020,08,06,15,49,16.00
2020,08,06,15,50,16.10
2020,08,06,15,51,16.20
2020,08,06,15,52,16.00
2020,08,06,15,53,16.00
2020,08,06,15,54,16.00
2020,08,06,15,55,16.10
2020,08,06,15,56,16.10
2020,08,06,15,57,16.20
2020,08,06,15,58,16.20
2020,08,06,15,59,16.20
2020,08,06,16,00,16.10
2020,08,06,16,01,16.10
2020,08,06,16,02,16.10
2020,08,06,16,03,16.50
2020,08,06,16,04,16.70
2020,08,06,16,05,16.60
2020,08,06,16,06,16.40
2020,08,06,16,07,16.20
2020,08,06,16,08,16.10
2020,08,06,16,09,16.10
2020,08,06,16,10,16.10
2020,08,06,16,11,16.10
2020,08,06,16,12,16.00
2020,08,06,16,13,15.90
2020,08,06,16,14,15.80
2020,08,06,16,15,15.80
2020,08,06,16,16,15.90
2020,08,06,16,17,16.10
2020,08,06,16,18,16.10
2020,08,06,16,19,16.10
2020,08,06,16,20,16.10
2020,08,06,16,21,16.10
2020,08,06,16,22,16.10
2020,08,06,16,23,15.90
2020,08,06,16,24,15.90
2020,08,06,16,25,15.80
2020,08,06,16,26,15.80
2020,08,06,16,27,15.70
2020,08,06,16,28,15.80
2020,08,06,16,29,16.00
2020,08,06,16,30,16.10
2020,08,06,16,31,16.10
2020,08,06,16,32,16.00
2020,08,06,16,33,15.90
2020,08,06,16,34,16.10
2020,08,06,16,35,16.20
2020,08,06,16,36,16.20
2020,08,06,16,37,16.20
2020,08,06,16,38,16.10
2020,08,06,16,39,16.00
2020,08,06,16,40,16.10
2020,08,06,16,41,16.20
2020,08,06,16,42,16.20
2020,08,06,16,43,16.20
2020,08,06,16,44,16.00
2020,08,06,16,45,15.90
2020,08,06,16,46,15.90
2020,08,06,16,47,16.00
2020,08,06,16,48,15.90
2020,08,06,16,49,15.90
2020,08,06,16,50,15.90
2020,08,06,16,51,15.90
2020,08,06,16,52,15.80
2020,08,06,16,53,15.80
2020,08,06,16,54,15.80
2020,08,06,16,55,15.70
2020,08,06,16,56,15.80
2020,08,06,16,57,15.80
2020,08,06,16,58,15.80
2020,08,06,16,59,15.90
2020,08,06,17,00,15.90
2020,08,06,17,01,15.80
2020,08,06,17,02,15.90
2020,08,06,17,03,16.00
2020,08,06,17,04,16.10
2020,08,06,17,05,16.10
2020,08,06,17,06,16.10
2020,08,06,17,07,16.10
2020,08,06,17,08,16.00
2020,08,06,17,09,15.90
2020,08,06,17,10,16.00
2020,08,06,17,11,16.00
2020,08,06,17,12,16.00
2020,08,06,17,13,15.90
2020,08,06,17,14,15.80
2020,08,06,17,15,15.80
2020,08,06,17,16,15.90
2020,08,06,17,17,16.10
2020,08,06,17,18,16.20
2020,08,06,17,19,16.40